KD0RXN-4 Weather Reports


Display with metric or nautical units.
time (UTC)temp
F
wind
direction
speed
MPH
gust
MPH
rain 1hr
in
rain 24hr
in
rain mn
in
humidity
%
barometer
mb
20260506135033 49 67 0.0 0.0 0.00 0.20 0.20 77 1014.9
20260506134519 49 65 0.0 0.0 0.00 0.20 0.20 78 1014.8
20260506134029 48 77 0.0 0.0 0.00 0.20 0.20 80 1014.8
20260506133535 48 61 0.0 0.0 0.00 0.20 0.20 81 1014.9
20260506133021 48 59 0.0 0.0 0.00 0.20 0.20 83 1015.0
20260506132527 47 32 0.0 0.0 0.00 0.20 0.20 84 1015.0
20260506132051 47 50 0.0 0.0 0.00 0.20 0.20 84 1015.0
20260506131536 47 76 0.0 0.0 0.00 0.20 0.20 85 1015.1
20260506131022 46 72 0.0 0.0 0.00 0.20 0.20 86 1015.2
20260506130528 46 61 0.0 0.0 0.00 0.20 0.20 86 1015.1
20260506130033 46 85 0.0 0.0 0.00 0.20 0.20 87 1015.1
20260506125520 46 39 0.0 0.0 0.00 0.20 0.20 87 1014.9
20260506125026 46 65 0.0 0.0 0.00 0.20 0.20 87 1015.0
20260506124537 46 105 0.0 0.0 0.00 0.20 0.20 88 1015.1
20260506124023 46 13 0.0 0.0 0.00 0.20 0.20 88 1015.3
20260506123549 46 19 0.0 0.0 0.00 0.20 0.20 88 1015.2
20260506123033 46 5 0.0 0.0 0.00 0.20 0.20 88 1015.3
20260506122519 46 36 0.0 0.0 0.00 0.20 0.20 89 1015.4
20260506122025 46 355 0.0 0.0 0.00 0.20 0.20 89 1015.2
20260506121531 45 52 0.0 0.0 0.00 0.20 0.20 89 1015.1
20260506121036 45 20 0.0 0.0 0.00 0.20 0.20 90 1015.1
20260506120522 45 5 0.0 0.0 0.00 0.20 0.20 89 1015.1
20260506120028 45 63 0.0 0.0 0.00 0.20 0.20 90 1015.1
20260506115554 45 303 0.0 0.0 0.00 0.20 0.20 90 1015.2
20260506115023 45 244 0.0 0.0 0.00 0.20 0.20 90 1015.0
20260506114529 45 349 0.0 0.0 0.00 0.20 0.20 90 1015.0
20260506114036 45 325 0.0 0.0 0.00 0.20 0.20 90 1015.0
20260506113522 45 221 0.0 0.0 0.00 0.20 0.20 90 1014.9
20260506113029 45 325 0.0 0.0 0.00 0.20 0.20 90 1014.8
20260506112535 45 86 0.0 0.0 0.00 0.20 0.20 90 1014.7
20260506112021 45 275 0.0 0.0 0.00 0.20 0.20 90 1014.5
20260506111527 45 305 0.0 0.0 0.00 0.20 0.20 90 1014.2
20260506111033 45 52 0.0 0.0 0.00 0.20 0.20 90 1013.9
20260506110537 45 52 0.0 0.0 0.00 0.20 0.20 90 1013.7
20260506110026 45 46 0.0 0.0 0.00 0.20 0.20 90 1013.7
20260506105532 45 46 0.0 0.0 0.00 0.20 0.20 90 1013.8
20260506105019 45 50 0.0 0.0 0.00 0.20 0.20 90 1013.8
20260506104525 45 19 0.0 0.0 0.00 0.20 0.20 90 1013.7
20260506104031 45 19 0.0 0.0 0.00 0.20 0.20 90 1013.9
20260506103536 45 15 0.0 0.0 0.00 0.20 0.20 90 1013.9
20260506103023 45 11 0.0 0.0 0.00 0.20 0.20 91 1013.8
20260506102527 45 12 0.0 0.0 0.00 0.20 0.20 90 1013.5
20260506102034 45 342 0.0 0.0 0.00 0.20 0.20 90 1013.7
20260506101518 45 23 0.0 0.0 0.00 0.20 0.20 91 1013.5
20260506101022 45 28 0.0 0.0 0.00 0.20 0.20 91 1013.2
20260506100547 45 355 0.0 0.0 0.00 0.20 0.20 91 1013.6
20260506100035 45 17 0.0 0.0 0.00 0.20 0.20 91 1013.7
20260506095540 45 26 0.0 0.0 0.00 0.20 0.20 91 1013.2
20260506095022 45 15 0.0 0.0 0.00 0.20 0.20 91 1013.2
20260506094527 45 351 0.0 0.0 0.00 0.20 0.20 91 1013.1
20260506094032 45 55 0.0 0.0 0.00 0.20 0.20 91 1013.1
20260506093537 45 14 0.0 0.0 0.00 0.20 0.20 91 1013.2
20260506093042 45 12 0.0 0.0 0.00 0.20 0.20 91 1013.2
20260506092525 45 13 0.0 0.0 0.00 0.20 0.20 91 1013.1
20260506092029 45 325 0.0 0.0 0.00 0.20 0.20 91 1013.1
20260506091535 45 323 0.0 0.0 0.00 0.20 0.20 91 1013.1
20260506091020 45 234 0.0 0.0 0.00 0.20 0.20 91 1012.9
20260506090525 45 233 0.0 0.0 0.00 0.20 0.20 91 1012.7
20260506090032 44 45 0.0 0.0 0.00 0.20 0.20 90 1011.8
20260506085537 44 78 0.0 0.0 0.00 0.20 0.20 90 1011.2
20260506085021 45 74 0.0 0.0 0.00 0.20 0.20 90 1011.5
20260506084545 45 321 0.0 0.0 0.00 0.20 0.20 90 1011.9
20260506084030 45 99 0.0 0.0 0.00 0.20 0.20 90 1011.9
20260506083555 45 228 0.0 0.0 0.00 0.20 0.20 90 1012.5
20260506083019 44 71 0.0 0.0 0.00 0.20 0.20 90 1011.5
20260506082525 45 19 0.0 0.0 0.00 0.20 0.20 90 1011.0
20260506082030 45 35 0.0 0.0 0.00 0.20 0.20 90 1011.1
20260506081534 45 35 0.0 0.0 0.00 0.20 0.20 90 1011.0
20260506081019 45 35 0.0 0.0 0.00 0.20 0.20 90 1011.4
20260506080525 45 78 0.0 0.0 0.00 0.20 0.20 90 1011.1
20260506073021 45 53 0.0 0.0 0.00 0.20 0.20 90 1011.7
20260506072527 45 55 0.0 0.0 0.00 0.20 0.20 90 1011.8
20260506072033 45 59 0.0 0.0 0.00 0.20 0.20 90 1012.1
20260506071538 45 53 0.0 0.0 0.00 0.20 0.20 90 1012.2
20260506071023 45 29 0.0 0.0 0.00 0.20 0.20 90 1012.6
20260506070528 45 29 0.0 0.0 0.00 0.20 0.20 90 1012.6
20260506062037 45 19 0.0 0.0 0.00 0.20 0.20 89 1012.4
20260506061521 45 19 0.0 0.0 0.00 0.20 0.20 89 1012.6
20260506061048 45 72 0.0 0.0 0.00 0.20 0.20 89 1012.5
20260506060536 45 72 0.0 0.0 0.00 0.20 0.20 89 1012.6
20260506051026 45 64 0.0 0.0 0.00 0.20 0.20 89 1011.4
20260506050551 45 82 0.0 0.0 0.01 0.20 0.20 89 1011.3
20260506045048 45 49 0.0 0.0 0.01 0.20 0.20 89 1011.5
20260506044553 45 61 0.0 0.0 0.01 0.20 0.20 89 1011.3
20260506044056 45 25 0.0 0.0 0.01 0.20 0.20 89 1011.4
20260506043521 45 71 0.0 0.0 0.01 0.20 0.20 89 1011.2
20260506043026 45 55 0.0 0.0 0.01 0.20 0.20 88 1011.4
20260506042530 45 36 0.0 0.0 0.01 0.20 0.20 88 1011.4
20260506042036 45 68 0.0 0.0 0.01 0.20 0.20 88 1011.2
20260506041540 45 74 0.0 0.0 0.01 0.20 0.20 88 1011.1
20260506041023 45 319 0.0 1.0 0.01 0.20 0.20 88 1011.0
20260506040528 45 60 0.0 0.0 0.00 0.19 0.19 88 1010.8
20260506040033 45 81 0.0 0.0 0.00 0.19 0.19 88 1010.8
20260506035558 45 22 0.0 0.0 0.00 0.19 0.19 88 1011.1
20260506035022 45 59 0.0 0.0 0.00 0.19 0.19 89 1011.1
20260506034530 45 65 0.0 0.0 0.00 0.19 0.19 89 1011.0
20260506034035 45 45 0.0 0.0 0.00 0.19 0.19 89 1011.0
20260506033521 45 71 0.0 1.0 0.00 0.19 0.19 89 1011.3
20260506033025 45 71 0.0 1.0 0.00 0.19 0.19 89 1011.2
20260506032530 45 67 0.0 0.0 0.00 0.19 0.19 89 1011.3
20260506032036 45 67 0.0 2.0 0.00 0.19 0.19 89 1011.4
20260506031521 45 39 0.0 2.0 0.00 0.19 0.19 89 1011.4
20260506031026 45 81 0.0 1.0 0.00 0.19 0.19 89 1010.9
20260506030531 45 78 0.0 1.0 0.00 0.19 0.19 89 1010.8
20260506030036 45 355 0.0 1.0 0.00 0.19 0.19 89 1010.7
20260506025526 45 59 0.0 0.0 0.00 0.19 0.19 89 1010.4
20260506025031 45 39 0.0 1.0 0.00 0.19 0.19 89 1010.6
20260506024556 45 22 0.0 1.0 0.00 0.19 0.19 89 1010.7
20260506024020 46 63 0.0 0.0 0.00 0.19 0.19 89 1010.6
20260506023526 46 84 0.0 1.0 0.00 0.19 0.19 89 1010.4
20260506023051 46 64 0.0 1.0 0.00 0.19 0.19 89 1010.4
20260506022535 46 41 0.0 1.0 0.00 0.19 0.19 89 1010.4
20260506022019 46 53 0.0 0.0 0.00 0.19 0.19 89 1010.3
20260506021525 46 360 0.0 1.0 0.00 0.19 0.19 89 1010.0
20260506021029 46 32 0.0 1.0 0.00 0.19 0.19 89 1010.3
20260506020535 46 59 0.0 1.0 0.00 0.19 0.19 89 1010.1
20260506020041 46 15 0.0 0.0 0.00 0.19 0.19 89 1010.4
20260506015525 46 13 0.0 0.0 0.00 0.19 0.19 89 1010.2
20260506015034 46 46 0.0 1.0 0.00 0.19 0.19 89 1009.9
20260506014520 46 69 0.0 0.0 0.00 0.19 0.19 89 1010.1
20260506014026 46 42 0.0 1.0 0.00 0.19 0.19 89 1009.7
20260506013540 46 94 0.0 0.0 0.00 0.19 0.19 89 1009.7
20260506013035 46 40 0.0 0.0 0.00 0.19 0.19 89 1009.5
20260506012519 47 33 0.0 0.0 0.00 0.19 0.19 89 1009.4
20260506012023 46 32 0.0 0.0 0.00 0.19 0.19 89 1009.2
20260506011528 47 40 0.0 0.0 0.00 0.19 0.19 89 1009.3
20260506011036 47 41 0.0 0.0 0.00 0.19 0.19 89 1009.3
20260506010541 47 38 0.0 0.0 0.00 0.19 0.19 89 1009.5
20260506010025 47 38 0.0 0.0 0.00 0.19 0.19 89 1009.0
20260506005550 47 34 0.0 0.0 0.00 0.19 0.19 89 1008.8
20260506005018 46 360 0.0 1.0 0.00 0.19 0.19 89 1009.0
20260506004028 46 34 0.0 1.0 0.00 0.19 0.19 89 1009.2
20260506003533 47 72 0.0 1.0 0.00 0.19 0.19 89 1009.0
20260506003019 46 32 0.0 2.0 0.01 0.19 0.19 89 1008.9
20260506002522 46 59 0.0 2.0 0.01 0.19 0.19 89 1008.6
20260506002029 46 48 0.0 2.0 0.01 0.19 0.19 89 1008.8
20260506001554 46 70 0.0 2.0 0.01 0.19 0.19 89 1008.7
20260506001059 46 91 0.0 4.0 0.01 0.19 0.19 89 1008.7
20260506000542 47 75 0.0 4.0 0.01 0.19 0.19 89 1008.7
20260506000047 47 36 0.0 2.0 0.01 0.19 0.19 88 1008.7
20260505235530 47 46 0.0 0.0 0.01 0.19 0.19 88 1008.7
20260505235036 47 44 0.0 0.0 0.01 0.19 0.19 88 1008.8
20260505234542 47 73 0.0 0.0 0.01 0.19 0.19 88 1008.4
20260505234026 47 51 0.0 1.0 0.01 0.19 0.19 88 1008.7
20260505233535 47 36 0.0 1.0 0.01 0.19 0.19 88 1008.5
20260505233041 47 40 0.0 1.0 0.00 0.18 0.18 88 1008.5
20260505232524 47 36 0.0 1.0 0.00 0.18 0.18 88 1008.5
20260505232030 47 93 0.0 2.0 0.00 0.18 0.18 88 1008.5
20260505231534 47 21 0.0 2.0 0.00 0.18 0.18 87 1008.5
20260505231020 47 83 0.0 2.0 0.00 0.18 0.18 87 1008.2
20260505230526 47 55 0.0 2.0 0.00 0.18 0.18 87 1008.4
20260505230031 47 63 0.0 1.0 0.00 0.18 0.18 87 1008.3
20260505225535 47 53 0.0 1.0 0.00 0.18 0.18 87 1008.3
20260505225020 47 67 0.0 2.0 0.00 0.18 0.18 87 1008.5
20260505224544 47 77 0.0 3.0 0.00 0.18 0.18 87 1008.6
20260505224030 47 44 0.0 3.0 0.01 0.18 0.18 86 1008.6
20260505223519 47 298 0.0 3.0 0.01 0.18 0.18 86 1008.4
20260505223024 47 70 0.0 3.0 0.01 0.18 0.18 86 1008.4
20260505222528 47 40 0.0 9.0 0.02 0.18 0.18 85 1008.1
20260505222035 47 64 0.0 9.0 0.02 0.18 0.18 85 1008.3
20260505221520 47 328 0.0 5.0 0.02 0.18 0.18 84 1008.5
20260505221025 47 53 0.0 5.0 0.02 0.18 0.18 84 1008.4
20260505220530 47 48 0.0 3.0 0.02 0.18 0.18 85 1008.3
20260505220036 47 35 0.0 2.0 0.02 0.18 0.18 84 1008.6
20260505215521 48 55 0.0 1.0 0.02 0.18 0.18 85 1008.5
20260505215047 48 34 0.0 2.0 0.02 0.18 0.18 84 1008.6
20260505214531 48 84 0.0 2.0 0.02 0.18 0.18 84 1008.4
20260505214021 48 24 0.0 2.0 0.01 0.17 0.17 84 1008.5
20260505213526 48 49 0.0 2.0 0.01 0.17 0.17 83 1008.3
20260505213050 48 71 0.0 4.0 0.01 0.17 0.17 83 1008.2
20260505212534 48 17 0.0 5.0 0.00 0.16 0.16 82 1008.3
20260505212018 48 38 0.0 4.0 0.00 0.16 0.16 81 1008.4
20260505211524 48 54 0.0 3.0 0.00 0.16 0.16 82 1008.4
20260505211028 49 10 0.0 2.0 0.02 0.16 0.16 83 1008.2
20260505210532 49 30 0.0 3.0 0.03 0.16 0.16 82 1008.3
20260505210038 49 93 0.0 3.0 0.03 0.16 0.16 82 1008.4
20260505205523 49 28 0.0 3.0 0.03 0.16 0.16 82 1008.1
20260505205028 49 27 0.0 3.0 0.03 0.16 0.16 82 1008.2
20260505204537 49 17 0.0 1.0 0.03 0.16 0.16 82 1008.2
20260505204044 49 44 0.0 1.0 0.03 0.16 0.16 82 1008.4
20260505203528 49 44 0.0 2.0 0.03 0.16 0.16 81 1008.3
20260505203053 49 35 0.0 2.0 0.03 0.16 0.16 81 1008.1
20260505202518 50 56 0.0 6.0 0.03 0.16 0.16 80 1008.0
20260505202043 50 38 0.0 6.0 0.03 0.16 0.16 78 1008.0
20260505201526 51 21 0.0 4.0 0.03 0.16 0.16 76 1008.0
20260505201031 51 41 0.0 8.0 0.01 0.14 0.14 73 1008.1
20260505200536 51 360 1.0 8.0 0.00 0.13 0.13 70 1008.2
20260505200021 51 63 0.0 6.0 0.00 0.13 0.13 70 1007.9
20260505195527 52 43 0.0 6.0 0.00 0.13 0.13 69 1007.9
20260505195032 52 85 0.0 6.0 0.00 0.13 0.13 68 1007.8
20260505194535 51 40 0.0 7.0 0.00 0.13 0.13 68 1007.8
20260505194024 51 115 2.0 7.0 0.00 0.13 0.13 67 1007.7
20260505193529 52 76 1.0 9.0 0.00 0.13 0.13 66 1008.0
20260505193035 52 53 1.0 12.0 0.00 0.13 0.13 66 1007.8
20260505192521 52 67 2.0 12.0 0.00 0.13 0.13 66 1007.8
20260505192027 52 19 0.0 7.0 0.00 0.13 0.13 68 1007.6
20260505191553 52 33 0.0 3.0 0.00 0.13 0.13 69 1007.8
20260505191037 52 62 0.0 10.0 0.00 0.13 0.13 69 1007.8
20260505190542 52 22 1.0 10.0 0.00 0.13 0.13 69 1007.7
20260505190046 52 34 1.0 6.0 0.00 0.13 0.13 69 1008.0
20260505185531 52 82 1.0 9.0 0.00 0.13 0.13 68 1008.1
20260505185055 52 22 1.0 9.0 0.00 0.13 0.13 68 1008.1
20260505184519 52 309 0.0 11.0 0.00 0.13 0.13 70 1008.2
20260505184024 52 22 2.0 10.0 0.00 0.13 0.13 69 1008.0
20260505183529 52 61 1.0 11.0 0.00 0.13 0.13 69 1007.8
20260505183018 53 32 2.0 15.0 0.00 0.13 0.13 68 1007.9
20260505182523 53 26 1.0 15.0 0.00 0.13 0.13 68 1007.7
20260505182027 53 22 1.0 11.0 0.00 0.13 0.13 70 1007.7
20260505181532 52 267 1.0 13.0 0.00 0.13 0.13 72 1007.7
20260505181037 52 74 2.0 13.0 0.00 0.13 0.13 71 1007.7
20260505180521 52 78 1.0 12.0 0.00 0.13 0.13 73 1007.7
20260505180047 52 76 2.0 12.0 0.00 0.13 0.13 75 1007.7
20260505175531 52 67 1.0 9.0 0.00 0.13 0.13 76 1007.8
20260505175036 52 55 1.0 9.0 0.00 0.13 0.13 77 1007.6
20260505174522 52 67 1.0 9.0 0.00 0.13 0.13 77 1007.6
20260505174026 52 92 1.0 9.0 0.00 0.13 0.13 77 1007.9
20260505173536 52 31 0.0 5.0 0.00 0.13 0.13 78 1008.1
20260505173021 52 49 0.0 2.0 0.00 0.13 0.13 79 1008.0
20260505172526 52 37 0.0 2.0 0.00 0.13 0.13 79 1008.0
20260505172052 52 350 0.0 1.0 0.00 0.13 0.13 80 1007.8
20260505171556 52 64 0.0 2.0 0.00 0.13 0.13 80 1007.8
20260505171040 52 56 0.0 3.0 0.00 0.13 0.13 80 1008.0
20260505170525 52 50 0.0 8.0 0.00 0.13 0.13 79 1007.9
20260505170032 52 71 1.0 8.0 0.00 0.13 0.13 79 1007.6
20260505165536 53 52 0.0 3.0 0.00 0.13 0.13 80 1007.6
20260505165020 53 57 0.0 3.0 0.00 0.13 0.13 82 1007.4
20260505164525 52 72 1.0 3.0 0.00 0.13 0.13 82 1007.2
20260505164030 52 39 0.0 9.0 0.03 0.13 0.13 82 1007.1
20260505163521 53 65 1.0 9.0 0.11 0.13 0.13 83 1007.1
20260505163027 52 36 0.0 6.0 0.13 0.13 0.13 84 1007.0
20260505162533 52 48 1.0 6.0 0.13 0.13 0.13 84 1007.0
20260505162038 52 24 0.0 5.0 0.13 0.13 0.13 86 1007.1
20260505161523 52 57 0.0 8.0 0.13 0.13 0.13 85 1007.4
20260505161030 52 56 0.0 2.0 0.13 0.13 0.13 85 1007.5
20260505160557 51 56 0.0 5.0 0.13 0.13 0.13 85 1007.4
20260505153023 54 20 0.0 1.0 0.00 0.00 0.00 74 1008.7
20260505152549 54 31 0.0 1.0 0.00 0.00 0.00 74 1008.2
20260505152035 54 41 0.0 2.0 0.00 0.00 0.00 74 1008.1
20260505151521 54 59 0.0 1.0 0.00 0.00 0.00 75 1007.7
20260505151027 54 38 0.0 5.0 0.00 0.00 0.00 75 1007.4
20260505150534 54 57 1.0 9.0 0.00 0.00 0.00 74 1007.0
20260505140529 53 70 0.0 8.0 0.00 0.00 0.00 80 1006.6